Content
SEND FEEDBACK

Daily
Averages
Monthly
Summary
United States of America

NAPERVILLE, ILLINOIS


Home > North America > United States > Illinois
Elevation: 687 feet     Latitude: 41 49N     Longitude: 088 04W

WEATHER
 
SELECT A DAY
Number of Records: 196,551;   Date Range: 1/1/95 - 7/26/14
 
SHARE

PRINT THIS DATA

[ ← Previous Day ]
WEATHER ALMANAC - OCTOBER 18, 2013
[ Next Day → ]
[ °C ]   °F
Weather ElementAverageHighLow
Temperature45.8 °F50 °F (3:31 pm)41 °F (3:51 am)
Dewpoint39.3 °F42.8 °F (11:38 am)37 °F (5:51 pm)
Humidity78.5 %90 % (9:51 am)66 % (3:31 pm)
Barometer29.91 in29.97 in (7:51 pm)29.83 in (3:51 am)
Wind Speed9.5 mph17.3 mph (12:51 pm)
Wind Gust24.2 mph (12:51 pm)
Weather ElementAverage
Visibility9.9 mi
Wind DirectionWSW (242.6 °)

Weather ElementTotal
Precipitation---
Heating Degree Days19.5 (Base 65)
Averaged from 27 records on October 18, 2013
WEATHER CONDITIONS BREAKOUT
WIND DIRECTION BREAKOUT
WEATHER BY HOUR - OCTOBER 18, 2013
[ °C ]   °F
Local TimeTemperatureDewpointHumidityBarometerVisibilityWind DirectionWind SpeedGust SpeedPrecipitationEventsConditions
1:51 AM42.1 °F39.0 °F89 %29.85 in10.0 miCalmPartly Cloudy
2:51 AM42.1 °F39.0 °F89 %29.84 in10.0 miSouth (170°)3.5 mphPartly Cloudy
3:51 AM41.0 °F37.9 °F89 %29.83 in10.0 miSSW (210°)4.6 mphScattered Clouds
4:51 AM43.0 °F39.0 °F86 %29.84 in9.0 miSW (230°)8.1 mphClear
5:51 AM42.1 °F37.9 °F85 %29.85 in10.0 miSW (230°)6.9 mphPartly Cloudy
6:51 AM41.0 °F37.9 °F89 %29.86 in10.0 miWSW (250°)6.9 mphPartly Cloudy
7:51 AM42.1 °F37.9 °F85 %29.88 in10.0 miWest (270°)9.2 mphPartly Cloudy
8:51 AM44.1 °F39.9 °F85 %29.91 in10.0 miWest (270°)11.5 mph19.6 mphPartly Cloudy
9:08 AM44.6 °F39.2 °F81 %29.91 in10.0 miWest (280°)15.0 mph20.7 mphMostly Cloudy
9:51 AM45.0 °F42.1 °F90 %29.94 in9.0 miWest (270°)11.5 mph19.6 mphOvercast
10:51 AM45.0 °F42.1 °F90 %29.94 in10.0 miWest (260°)12.7 mphOvercast
11:38 AM46.4 °F42.8 °F87 %29.93 in10.0 miWest (260°)15.0 mph20.7 mphOvercast
11:51 AM46.9 °F42.1 °F83 %29.94 in10.0 miWest (270°)13.8 mphOvercast
12:51 PM48.0 °F39.9 °F74 %29.94 in10.0 miWSW (250°)17.3 mph24.2 mphOvercast
1:24 PM48.2 °F39.2 °F71 %29.91 in10.0 miWSW (240°)10.4 mphOvercast
1:51 PM48.9 °F39.9 °F71 %29.91 in10.0 miWSW (250°)13.8 mphOvercast
2:51 PM48.9 °F39.9 °F71 %29.92 in10.0 miWSW (250°)11.5 mphOvercast
3:31 PM50.0 °F39.2 °F66 %29.91 in10.0 miWest (260°)13.8 mph19.6 mphOvercast
3:51 PM50.0 °F39.0 °F66 %29.93 in10.0 miWest (260°)11.5 mphOvercast
4:51 PM48.9 °F37.9 °F66 %29.94 in10.0 miWest (280°)11.5 mphOvercast
5:51 PM48.0 °F37.0 °F66 %29.95 in10.0 miWest (260°)8.1 mphOvercast
6:51 PM48.0 °F39.0 °F71 %29.96 in10.0 miWest (260°)8.1 mphOvercast
7:51 PM48.0 °F39.0 °F71 %29.97 in10.0 miWest (260°)6.9 mphOvercast
8:51 PM46.9 °F37.9 °F71 %29.96 in10.0 miWest (270°)5.8 mphOvercast
9:51 PM46.9 °F37.9 °F71 %29.96 in10.0 miWest (260°)8.1 mphOvercast
10:51 PM46.0 °F39.0 °F76 %29.96 in10.0 miWSW (240°)4.6 mphOvercast
11:51 PM45.0 °F39.0 °F80 %29.94 in10.0 miWSW (240°)6.9 mphOvercast
Hourly data recorded from KORD, located miles away from Naperville, Illinois







STORIES FROM OUR PARTNERS